TimeCST,TemperatureF,Dew PointF,Humidity,Sea Level PressureIn,VisibilityMPH,Wind Direction,Wind SpeedMPH,Gust SpeedMPH,PrecipitationIn,Events,Conditions,WindDirDegrees,DateUTC
12:00 AM,69.8,66.2,88,29.97,-9999.0,East,3.5,-,N/A,,Clear,100,2013-06-17 06:00:00
1:00 AM,69.8,64.4,83,29.96,-9999.0,ENE,5.8,-,N/A,,Clear,70,2013-06-17 07:00:00
2:00 AM,68.0,66.2,94,29.95,6.2,SSE,3.5,-,N/A,Fog,Patches of Fog,160,2013-06-17 08:00:00
3:00 AM,68,66,91,29.78,12,Calm,Calm,,,,Scattered Clouds,,2013-06-17 09:00:00
3:00 AM,68.0,66.2,94,29.95,6.2,Calm,Calm,-,N/A,,Scattered Clouds,0,2013-06-17 09:00:00
4:00 AM,68.0,64.4,88,29.95,6.2,East,3.5,-,N/A,,Scattered Clouds,80,2013-06-17 10:00:00
5:00 AM,68.0,62.6,83,29.96,6.2,ENE,6.9,-,N/A,,Partly Cloudy,60,2013-06-17 11:00:00
6:00 AM,69,63,75,29.81,12,NE,6.9,,,,Scattered Clouds,50,2013-06-17 12:00:00
6:00 AM,68.0,62.6,83,29.97,6.2,NE,6.9,-,N/A,,Partly Cloudy,50,2013-06-17 12:00:00
7:00 AM,75.2,64.4,69,29.98,6.2,ENE,6.9,-,N/A,,Partly Cloudy,60,2013-06-17 13:00:00
8:00 AM,77.0,64.4,65,29.98,-9999.0,East,9.2,-,N/A,,Clear,80,2013-06-17 14:00:00
9:00 AM,81,64,46,29.79,12,East,6.9,,,,Clear,100,2013-06-17 15:00:00
9:00 AM,80.6,64.4,58,29.96,-9999.0,East,6.9,-,N/A,,Clear,100,2013-06-17 15:00:00
9:20 AM,80.6,68.0,65,29.97,-9999.0,SW,5.8,-,N/A,,Clear,220,2013-06-17 15:20:00
10:00 AM,80.6,68.0,65,29.97,-9999.0,WSW,9.2,-,N/A,,Clear,250,2013-06-17 16:00:00
11:00 AM,80.6,68.0,65,29.97,6.2,West,10.4,-,N/A,,Partly Cloudy,260,2013-06-17 17:00:00
12:00 PM,82,70,58,29.77,12,WSW,8.1,,,,Partly Cloudy,250,2013-06-17 18:00:00
12:00 PM,82.4,69.8,66,29.95,6.2,WSW,8.1,-,N/A,,Scattered Clouds,250,2013-06-17 18:00:00
12:45 PM,80.6,69.8,70,29.93,6.2,West,10.4,-,N/A,Rain-Thunderstorm,Thunderstorms and Rain,270,2013-06-17 18:45:00
1:00 PM,78.8,68.0,69,29.94,6.2,West,9.2,-,N/A,Rain-Thunderstorm,Thunderstorms and Rain,260,2013-06-17 19:00:00
2:00 PM,73.4,68.0,83,29.94,6.2,South,6.9,-,N/A,Rain-Thunderstorm,Thunderstorms and Rain,190,2013-06-17 20:00:00
3:00 PM,71,67,82,29.80,9,SW,6.9,,,,Overcast,220,2013-06-17 21:00:00
3:00 PM,71.6,66.2,83,29.94,6.2,SW,6.9,-,N/A,,Overcast,220,2013-06-17 21:00:00
4:00 PM,71.6,68.0,88,29.94,6.2,North,5.8,-,N/A,,Mostly Cloudy,350,2013-06-17 22:00:00
5:00 PM,71.6,68.0,88,29.94,6.2,Calm,Calm,-,N/A,,Mostly Cloudy,0,2013-06-17 23:00:00
6:00 PM,71.6,68.0,88,29.96,6.2,Calm,Calm,-,N/A,,Mostly Cloudy,0,2013-06-18 00:00:00
7:00 PM,71.6,68.0,88,29.97,6.2,ESE,2.3,-,N/A,,Mostly Cloudy,110,2013-06-18 01:00:00
8:00 PM,71.6,68.0,88,29.96,6.2,Calm,Calm,-,N/A,,Partly Cloudy,0,2013-06-18 02:00:00
9:00 PM,71,67,84,29.81,12,North,6.9,,,,Scattered Clouds,0,2013-06-18 03:00:00
9:00 PM,69.8,68.0,94,29.98,6.2,North,6.9,-,N/A,,Partly Cloudy,360,2013-06-18 03:00:00
10:00 PM,69.8,66.2,88,30.00,6.2,North,3.5,-,N/A,,Partly Cloudy,360,2013-06-18 04:00:00
11:00 PM,69.8,66.2,88,29.99,6.2,SW,2.3,-,N/A,,Mostly Cloudy,220,2013-06-18 05:00:00